Regional Weather Roundup
Issued by NWS

Home | Current Version | Previous Version | Text Only | Print | Product List | Glossary On
Versions: 1 2 3 4 5 6 7 8 9 10 11 12 13 14 15 16 17 18 19 20 21 22 23 24 25 26 27 28 29 30 31 32 33 34 35 36 37 38 39 40 41 42 43 44 45 46 47 48 49 50
000
ASUS43 KMPX 241610
RWRMN
WEATHER ROUNDUP FOR MINNESOTA
NATIONAL WEATHER SERVICE TWIN CITIES/CHANHASSEN MN
1100 AM CDT SUN MAY 24 2015


NOTE: "FAIR" INDICATES FEW OR NO CLOUDS BELOW 12,000 FEET WITH NO
SIGNIFICANT WEATHER AND/OR OBSTRUCTIONS TO VISIBILITY. N/A MEANS
CURRENT SKY AND/OR WEATHER CONDITIONS ARE NOT AVAILABLE.

MNZ060>063-068>070-241700-
   Twin Cities Metro

CITY           SKY/WX    TMP DP  RH WIND       PRES   REMARKS
TWIN CITIES    LGT RAIN  62  55  77 E9        30.03S
ST PAUL        LGT RAIN  62  56  80 SE7       30.04S
CRYSTAL        LGT RAIN  64  55  72 E5        30.02S
BLAINE         LGT RAIN  64  55  72 E5        30.03F
LAKEVILLE      LGT RAIN  61  55  82 E9        30.03S
EDEN PRAIRIE   LGT RAIN  62  57  83 E7        30.01S
SOUTH ST PAUL  DRIZZLE   62  55  77 CALM      30.03S
LAKE ELMO      DRIZZLE   63  54  72 E7        30.05S
$$
MNZ001>005-007-008-013>017-022>024-027-028-241700-
   Northwest Minnesota

CITY           SKY/WX    TMP DP  RH WIND       PRES   REMARKS
BEMIDJI        CLOUDY    67  46  46 SE6       30.07F
HALLOCK        SUNNY     72  45  37 S5        30.04F
ROSEAU         SUNNY     72  48  43 SW5       30.05F
WARROAD          N/A     72  52  49 CALM      30.05F HAZE
THIEF RVR FALL PTSUNNY   70  46  43 SE6       30.06F
CROOKSTON      PTSUNNY   70  46  43 E8        30.06F
FOSSTON        PTSUNNY   72  52  49 NE3       30.07F
DETROIT LAKES  CLOUDY    63  46  55 E7        30.06F
MOORHEAD       CLOUDY    64  50  59 E8        30.03F
PARK RAPIDS    CLOUDY    64  47  53 E10       30.06F
MAHNOMEN       PTSUNNY   68  46  45 E7        30.05F
$$
MNZ006-009>011-018-025>026-241700-
   North Central Minnesota

CITY           SKY/WX    TMP DP  RH WIND       PRES   REMARKS
BAUDETTE       SUNNY     73  45  36 VRB5      30.06F
FLAG ISLAND    SUNNY     57  50  77 S9        30.04S
INTL FALLS     SUNNY     74  44  34 CALM      30.06F
WASKISH        MOSUNNY   66  52  59 CALM      30.07F
BIG FORK       PTSUNNY   72  45  37 CALM      30.08F
LONGVILLE      CLOUDY    64  46  52 E3        30.08F
GRAND RAPIDS   CLOUDY    66  45  45 SE3       30.09F
CRANE LAKE     MOSUNNY   72  41  33 N5        30.09S
ORR            MOSUNNY   72  39  30 CALM      30.06F
COOK           MOSUNNY   70  43  37 SW3       30.09S
WALKER         CLOUDY    63  48  58 E5        30.08S
$$
MNZ012-019>021-037-241700-
   Northeast Minnesota

CITY           SKY/WX    TMP DP  RH WIND       PRES   REMARKS
DULUTH         CLOUDY    68  44  42 E6        30.09F
ELY            MOSUNNY   72  41  33 CALM      30.08F
HIBBING        PTSUNNY   71  41  33 S7        30.08F
EVELETH        PTSUNNY   70  41  35 CALM      30.10S
DULUTH HARBOR  CLOUDY    55  48  76 CALM      30.09F
TWO HARBORS    MOSUNNY   73  52  46 SE7       30.08R
GRAND MARAIS     N/A     51  40  65 W7        30.07S
G MARAIS ARPRT MOSUNNY   73  37  27 SW3       30.10S
$$
MNZ029>031-032-039>041-046>048-054>057-064-241700-
   West Central Minnesota

CITY           SKY/WX    TMP DP  RH WIND       PRES   REMARKS
FERGUS FALLS   CLOUDY    63  48  59 E7        30.01F
WHEATON        CLOUDY    61  52  72 E8        30.02F
MORRIS         DRIZZLE   61  54  77 E7        29.99F
ALEXANDRIA     CLOUDY    63  50  62 E10       30.02F
ELBOW LAKE     CLOUDY    61  50  66 E7        30.01F
WADENA         CLOUDY    63  48  59 E8        30.04S
GLENWOOD       CLOUDY    63  52  67 E9        30.01F
APPLETON       LGT RAIN  64  55  72 E8        29.98F
BENSON         LGT RAIN  63  52  67 SE6       29.99F
ORTONVILLE     CLOUDY    61  54  77 NE6       29.97F
MADISON        LGT RAIN  61  54  77 E9        29.97F
WILLMAR        LGT RAIN  63  57  82 E9        30.00F
$$
MNZ033>034-036-042>043-049>051-058-059-241700-
   Central Minnesota

CITY           SKY/WX    TMP DP  RH WIND       PRES   REMARKS
ST CLOUD       CLOUDY    61  53  75 VRB5      30.03S
SAUK CENTRE    PTSUNNY   61  51  69 E8        30.02F
PAYNESVILLE    RAIN      58  53  83 NE6       30.02F
AITKIN         CLOUDY    63  50  63 E6        30.05F
PINE RIVER     CLOUDY    63  48  59 E8        30.10S
BRAINERD       CLOUDY    64  49  57 E7        30.06F
STAPLES        CLOUDY    63  48  59 E5        30.04F
LONG PRAIRIE   PTSUNNY   63  48  59 E9        30.03F
LITTLE FALLS   CLOUDY    63  46  55 E10       30.04F
LITCHFIELD     DRIZZLE   63  57  82 E7        30.01F
BUFFALO        CLOUDY    62  55  76 NE5       30.03F
MAPLE LAKE     LGT RAIN  61  57  87 NE5       30.03F
$$
MNZ037-044-045-052-053-241700-
   East Central Minnesota

CITY           SKY/WX    TMP DP  RH WIND       PRES   REMARKS
PRINCETON      CLOUDY    64  54  68 E3        30.04F
MORA           DRIZZLE   63  50  63 E3        30.07S
CAMBRIDGE      CLOUDY    66  52  59 SE5       30.03S
RUSH CITY      CLOUDY    63  53  68 CALM      30.05F
MOOSE LAKE     CLOUDY    63  46  55 NE5       30.06F
HINCKLEY       CLOUDY    64  52  63 E6        30.06F
CLOQUET        CLOUDY    63  48  59 CALM      30.09F
MCGREGOR       CLOUDY    61  50  67 NE3       30.08F
$$
MNZ071>073-080-081-089-090-097-098-241700-
   Southwest Minnesota

CITY           SKY/WX    TMP DP  RH WIND       PRES   REMARKS
MONTEVIDEO     LGT RAIN  63  57  82 SE9       29.98F
GRANITE FALLS  DRIZZLE   61  56  85 E8        29.99F
CANBY          LGT RAIN  60  56  89 E8        29.98F
MARSHALL       CLOUDY    61  54  77 E9        29.96F
REDWOOD FALLS  LGT RAIN  61  57  87 E7        29.97F FOG
OLIVIA         CLOUDY    59  52  77 SE8       29.99S
PIPESTONE      CLOUDY    61  57  88 E13       29.93F
WINDOM         LGT RAIN  61  57  88 E10       29.95F
WORTHINGTON    CLOUDY    59  54  82 E12       29.93F
JACKSON        DRIZZLE   59  59 100 E17G24    29.95F
TRACY          DRIZZLE   60  59  94 E7        29.97S
SLAYTON        LGT RAIN  58  58 100 E10       29.95F
$$
MNZ065>067-074>077-082>085-091>093-241700-
   South Central Minnesota

CITY           SKY/WX    TMP DP  RH WIND       PRES   REMARKS
MANKATO        CLOUDY    63  55  77 SE18      29.99F
NEW ULM        LGT RAIN  61  57  88 E6        29.98F
ST JAMES       DRIZZLE   63  59  88 E15       29.97F
FAIRMONT       CLOUDY    61  54  77 E14       29.95F
GLENCOE        DRIZZLE   62  59  91 E5        30.01S
FARIBAULT      CLOUDY    63  57  82 E13       30.02S
OWATONNA       LGT RAIN  61  55  82 SE14      30.01F
WASECA         DRIZZLE   59  54  82 SE16G24   30.01F
ALBERT LEA     LGT RAIN  57  57 100 E12       29.99F
$$
MNZ078>079-086>088-094>096-241700-
   Southeast Minnesota

CITY           SKY/WX    TMP DP  RH WIND       PRES   REMARKS
ROCHESTER      LGT RAIN  58  55  90 SE15      30.06F FOG
RED WING       LGT RAIN  63  55  77 SE12      30.05R
STANTON        DRIZZLE   64  55  75 SE10      30.01F
DODGE CENTER   LGT RAIN  61  57  88 SE14      30.04S
WINONA         LGT RAIN  59  55  88 SE9       30.07F
AUSTIN         LGT RAIN  59  55  88 SE15      30.01F
PRESTON        LGT RAIN  57  55  91 SE9       30.06S
$$
ABBREVIATIONS USED IN REMARKS
   TC - TEMPERATURES IN CELSIUS
  WCI - WIND CHILL INDEX
   HX - HEAT INDEX
  VSB - VISIBILITY
$$


USA.gov is the U.S. government's official web portal to all federal, state and local government web resources and services.